Location: Chillicothe
(39.7950°N, 93.5520°W)
Time: 22:39:14
(UTC-05:00)

Courier 1B - Visible Passes

Search period start: 16 October 2019 00:00
Search period end: 26 October 2019 00:00
Orbit: 962 x 1209 km, 28.3° (Epoch: 15 October)

Date Brightness Start Highest point End Pass type
(mag) Time Alt. Az. Time Alt. Az. Time Alt. Az.
16 Oct 9.2 19:52:00 10° SSW 19:57:50 23° SSE 20:01:07 18° SE visible
16 Oct 9.4 21:44:35 10° WSW 21:48:01 24° SW 21:48:01 24° SW visible
17 Oct 9.5 18:58:52 10° SSW 19:04:09 20° SSE 19:09:20 10° ESE visible
17 Oct 8.8 20:50:52 10° SW 20:57:34 32° S 20:57:37 32° S visible
17 Oct 10.3 22:44:29 10° WSW 22:44:30 10° WSW 22:44:30 10° WSW visible
18 Oct 9.0 19:57:16 10° SW 20:03:49 30° SSE 20:07:11 22° SE visible
18 Oct 9.4 21:50:34 10° WSW 21:54:05 24° SW 21:54:05 24° SW visible
19 Oct 9.2 19:03:48 10° SW 19:10:05 26° SSE 19:16:17 10° ESE visible
19 Oct 8.7 20:56:43 10° WSW 21:03:37 35° S 21:03:38 35° S visible
20 Oct 8.8 20:02:57 10° SW 20:09:50 34° S 20:13:11 24° SE visible
20 Oct 9.5 21:56:45 10° WSW 22:00:04 23° SW 22:00:04 23° SW visible
21 Oct 9.0 19:09:19 10° SW 19:16:04 32° S 19:22:43 10° ESE visible
21 Oct 8.8 21:02:47 10° WSW 21:09:37 34° S 21:09:37 34° S visible
22 Oct 8.8 20:08:55 10° WSW 20:15:54 35° S 20:19:10 25° SE visible
22 Oct 9.7 22:03:10 10° WSW 22:06:03 20° SW 22:06:03 20° SW visible
23 Oct 9.0 19:15:10 10° WSW 19:22:06 35° S 19:28:43 11° ESE visible
23 Oct 9.0 21:09:05 10° WSW 21:15:36 30° SSW 21:15:36 30° SSW visible
24 Oct 9.0 20:15:07 10° WSW 20:21:56 33° S 20:25:11 24° SSE visible
24 Oct 10.0 22:10:01 10° WSW 22:12:05 15° SW 22:12:05 15° SW visible
25 Oct 9.0 19:21:15 10° WSW 19:28:09 35° S 19:34:49 11° ESE visible
25 Oct 9.3 21:15:40 10° WSW 21:21:39 24° SSW 21:21:43 24° SSW visible
